Regional Weather Roundup
Issued by NWS

Home | Current Version | Previous Version | Text Only | Print | Product List | Glossary On
Versions: 1 2 3 4 5 6 7 8 9 10 11 12 13 14 15 16 17 18 19 20 21 22 23 24 25 26 27 28 29 30 31 32 33 34 35 36 37 38 39 40 41 42 43 44 45 46 47 48 49 50
000
ASHW40 PHFO 280543
RWRHI

WEATHER ROUNDUP FOR HAWAII
NATIONAL WEATHER SERVICE HONOLULU HI
700 PM HST FRI MAR 27 2015

THIS IS AN AUTOMATED REPORT THAT HAS NOT BEEN QUALITY CONTROLLED.

NOTE..."FAIR" INDICATES FEW OR NO CLOUDS BELOW 12,000 FEET WITH NO
SIGNIFICANT WEATHER AND/OR OBSTRUCTIONS TO VISIBILITY.

* - THESE SITES REPORT LIMITED FIELDS

HIZ001>004-280600-
KAUAI-NIIHAU-

CITY           SKY/WX    TMP DP  RH WIND       PRES   REMARKS
LIHUE APT      CLOUDY    74  62  66 NE10      30.17R
PORT ALLEN*      N/A     75 N/A N/A E18         N/A
POIPU*           N/A     73 N/A N/A NE7G14      N/A
PRINCEVILLE*     N/A     72 N/A N/A MISG        N/A
KOKOLE POINT*  NOT AVBL
MOLOAA DAIRY*  NOT AVBL
WAIMEA HTS*      N/A     72  57  60 NW6         N/A
PUU OPAE*        N/A     63  57  82 CALM        N/A
PUU LUA*       NOT AVBL
MAKAHA RIDGE*  NOT AVBL
$$

HIZ005>011-280600-
OAHU-

CITY           SKY/WX    TMP DP  RH WIND       PRES   REMARKS
HONOLULU       PTCLDY    75  62  64 NE12      30.12R
KALAELOA       CLEAR     74  61  63 VRB6      30.14R
KANEOHE MCB    CLOUDY    74  64  71 E8        30.13R
WHEELER FIELD  FAIR      72  61  69 NE9       30.14R
BELLOWS*         N/A    N/A N/A N/A NE17        N/A
KAHUKU*          N/A    N/A N/A N/A E9G16       N/A
WHEELER*       NOT AVBL
WAIANAE HARBOR NOT AVBL
DILLINGHAM*      N/A     72  61  68 MISG        N/A
KAHUKU TRN*      N/A     72  63  73 E9G17       N/A
KAWAILOA*        N/A     68  61  77 E3G12       N/A
KII*             N/A     73  64  73 E16         N/A
MAKUA RANGE*     N/A    N/A N/A N/A E7G15       N/A
OAHU FOREST NW   N/A    N/A N/A N/A CALM        N/A
SCHOFIELD BRK*   N/A     72  61  68 MISG        N/A
SCHOFIELD S*   NOT AVBL
WAIANAE VLY*     N/A     70  59  68 NE3G13      N/A
KUAOKALA*        N/A     70  57  64 CALM        N/A
HONOULIUULI*   NOT AVBL
MOKUOLOE IS*     N/A    N/A N/A N/A MISG        N/A
PALEHUA*         N/A     72  61  68 CALM        N/A
WAIAWA PHB*    NOT AVBL
$$

HIZ012>013-280600-
MOLOKAI-

CITY           SKY/WX    TMP DP  RH WIND       PRES   REMARKS
MOLOKAI AIRPT  CLEAR     71  63  75 NE12G22   30.13R
KALAUPAPA      NOT AVBL
MAKAPULAPAI*     N/A     73  63  68 E17G26      N/A
MOLOKAI 1*       N/A     61  55  82 E6G21       N/A
PUU ALII*        N/A     56  55  95 CALM        N/A
$$

HIZ016-280600-
KAHOOLAWE-

CITY           SKY/WX    TMP DP  RH WIND       PRES   REMARKS
KAHOOLAWE*       N/A     68 N/A N/A E18G26      N/A
HAKIOAWA*        N/A     69  64  83 MISG      30.56R
HONOKANAIA*      N/A     75  63  66 NE15G24   30.12R
KANELOA*         N/A     73  66  78 MISG      29.33R
KEALIALALO*      N/A     72  64  78 E15G29    30.14R
LUA MAKIKA*    NOT AVBL
$$

HIZ014>015-280600-
LANAI-

CITY           SKY/WX    TMP DP  RH WIND       PRES   REMARKS
LANAI CITY       N/A    N/A N/A N/A MISG        N/A
LANAI 1*         N/A     66  66 100 NE17G28     N/A
$$

HIZ017>028-280600-
MAUI-

CITY           SKY/WX    TMP DP  RH WIND       PRES   REMARKS
KAHULUI        PTCLDY    74  64  71 E13G20    30.11R
KAPALUA-W MAUI NOT AVBL
HANA AIRPORT   CLOUDY    73  64  73 E7        30.20R
HANA*            N/A     75 N/A N/A E7G15       N/A
HALEAKALA SUMM   N/A     46  -8  10 E26         N/A
MAALAEA BAY*   NOT AVBL
HALEAKALA*     NOT AVBL
KAUPO GAP*       N/A     59  54  82 CALM        N/A
KULA 1*          N/A     55  34  44 E3          N/A
$$

HIZ023>026-280600-
BIG ISLAND OF HAWAII COAST AND LOWER SLOPES-

CITY           SKY/WX    TMP DP  RH WIND       PRES   REMARKS
KAILUA KONA    PTCLDY    80  67  64 S7        30.08R
HILO           CLEAR     72  66  81 E7        30.15R
HONOKAA*       NOT AVBL
KAWAIHAE MWT*    N/A     81 N/A N/A NE9G21      N/A
KAWAIHAE*        N/A     81 N/A N/A NW7G13      N/A
SOUTH POINT*     N/A     72 N/A N/A NE16G25     N/A
UPOLU AIRPORT*   N/A    N/A N/A N/A NE18G28     N/A
KAMUELA*       MOCLDY    63  63 100 NE21      30.23R
HAKALAU*         N/A    N/A N/A N/A S6          N/A
KALOKO-HONOKO*   N/A     79  66  65 SE6       30.08R
PALI 2*          N/A     64  57  77 NE17G24     N/A
KEALAKOMO*       N/A     75  64  69 NE15G23     N/A
KAUPULEHU*       N/A     73  59  60 SW6G14      N/A
KAPAPALA*        N/A     68  65  89 CALM        N/A
LOWER KAHUKU*    N/A    N/A N/A N/A NE3G12      N/A
PUHE CS*         N/A     81  57  44 NE9G24      N/A
PUHO CS*         N/A     78  65  63 S2          N/A
PTA KEAMUKU*     N/A     61  57  88 CALM        N/A
WAIKOLOA*        N/A     72  59  64 E18G26      N/A
$$

HIZ027>028-280600-
BIG ISLAND OF HAWAII INTERIOR AND SUMMMITS-

CITY           SKY/WX    TMP DP  RH WIND       PRES   REMARKS
BRADSHAW FIELD CLEAR     55  49  81 W2        30.40R
MK VISITOR CEN NOT AVBL
MAUNA KEA*       N/A     36 -22   7 SE28        N/A  WCI  23
MAUNA LOA*       N/A     48 -24   4 MISG        N/A
MAUNA LOA 1*   NOT AVBL
PTA KIPUKA*      N/A     59  55  88 NW3G9       N/A
PTA RANGE 17*    N/A     57  54  88 SW3G12      N/A
PTA WEST*        N/A     63  57  82 NW3G10      N/A
NENE CABIN*      N/A     52  50  93 E5G12       N/A
AHUMOA*          N/A     50  49  96 SE3G12      N/A
PTA PORTABLE*  NOT AVBL
PUU MALI*      NOT AVBL
$$

HIC003-280600-
NORTHWEST ISLANDS-

CITY           SKY/WX    TMP DP  RH WIND       PRES   REMARKS
MIDWAY ISLAND  CLOUDY    64  64 100 NW8       30.14R
MIDWAY NOS*    NOT AVBL
FRENCH FRIGATE NOT AVBL
$$

PHZ110>124-180-280600-
BUOY REPORTS

STATION/POSITION TIME  TEMP    WIND        PRES    WAVE   SWELL
                       AIR SEA DIR/SP/G            HT/PER HT/DIR
                 (UTC) (F)     (DEG/KT/KT) (MB)    (FT/S) (FT/D)
BUOY 51001       NOT AVBL
BUOY 51101       0500   73 73  110/  8/ 10 1021.1R   5/10   5
BUOY 51100       0500   73 74  100/ 14     1022.3R
BUOY 51003       0500   76 78   90/ 17/ 19 1018.9R   9/ 9   7
BUOY 51004       0437   77 77   60/ 19/ 21 1018.1R   9/ 8   5/ 60
BARBERS PT BUOY  NOT AVBL
WAIMEA BAY BUOY  0500      76                N/A     5/10   3/320
KAILUA BAY BUOY  0500      76                N/A     7/ 8   2/ 10
LANAI BUOY       0500      77                N/A     2/13   2/200
BARBERS PT 2     0500      77                N/A     4/11   2/280
PAUWELA MAUI     0500      75                N/A     8/ 8
HILO             0500      77                N/A     7/11   3/350
KANEOHE BAY BUOY 0500      75                N/A     7/ 8   2/360
HANALEI KAUAI    0500      75                N/A     7/10   2/320
KAHULUI HARBOR   0500   74 77   60/ 12/ 20 1019.6R
HONOLULU HARBOR  0500   75 76   70/  3/  7 1020.5R
KILO NALU        NOT AVBL
HILO HARBOR      0500   74 77  120/  4/  6 1020.9R
MOKUOLOE         0500   75 76   80/  9/ 11 1020.8R
NAWILIWILI       0500   73 76   50/  7/  9 1021.0R
WHOTS BUOY       NOT AVBL
BUOY 51028       NOT AVBL
$$

......................KEY........................................
  SKY/WX - SKY CONDITIONS/PRESENT WEATHER
  TMP    - TEMPERATURE IN FAHRENHEIT
  DWPT   - DEWPOINT IN FAHRENHEIT
  RH     - RELATIVE HUMIDITY IN PERCENT
  WIND   - DIRECTION AND SPEED /MPH FOR ISLANDS...KTS FOR BUOYS/
  PRES   - MEAN SEA LEVEL PRESSURE IN INCHES OF HG
  VSB    - VISIBILITY IN MILES
  HX     - HEAT INDEX
  WCI    - WIND CHILL INDEX
  VRB    - VARIABLE WIND DIRECTION
  N/A    - NOT AVAILABLE



USA.gov is the U.S. government's official web portal to all federal, state and local government web resources and services.